Flag for Italy

Past Weather in Milan, Italy — January 2020

Now
52 °F

Scattered clouds.


Feels Like: 52 °F
Forecast: 60 / 54 °F
Wind: 1 mph from North

Location: Milan / Linate
Current Time: Oct 21, 2020 at 10:15:31 am
Latest Report: Oct 21, 2020 at 9:20 am
Visibility: 2 mi
Pressure30.24 "Hg
Humidity: 100%
Dew Point: 52 °F
Location of MilanLocation

January 2020 Weather in Milan — Graph

°F

High & Low Weather Summary for January 2020

 TemperatureHumidityPressure
High59 °F (Jan 29, 3:20 pm)100% (Jan 1, 12:20 am)30.86 "Hg (Jan 1, 12:20 am)
Low27 °F (Jan 1, 7:20 am)34% (Jan 20, 11:50 am)29.68 "Hg (Jan 28, 3:20 pm)
Average39 °F85%30.31 "Hg
* Reported Jan 1 12:20 am — Jan 31 11:50 pm, Milan. Weather by CustomWeather, © 2020

Note: Actual official high and low records may vary slightly from our data, if they occured in-between our weather recording intervals... More about our weather records

Milan Weather History for January 1, 2020

Scroll right to see more
 ConditionsComfort  
Time TempWeatherWind HumidityBarometerVisibility
12:20 am
Wed, Jan 1
30 °FFog.2 mph100%30.42 "Hg2 mi
12:50 am30 °FFog.1 mph100%30.42 "Hg1 mi
1:20 am32 °FFog.1 mph93%30.42 "Hg1 mi
1:50 am30 °FIce fog.2 mph93%30.42 "Hg1 mi
2:20 am28 °FIce fog.1 mph100%30.42 "Hg0 mi
2:50 am30 °FIce fog.1 mph93%30.42 "Hg1 mi
3:20 am28 °FIce fog.1 mph93%30.42 "Hg1 mi
4:20 am30 °FIce fog.2 mph100%30.39 "Hg1 mi
4:50 am28 °FFog.2 mph100%30.39 "Hg1 mi
5:20 am28 °FIce fog.2 mph93%30.39 "Hg0 mi
5:50 am28 °FIce fog.1 mph93%30.39 "Hg1 mi
6:20 am28 °FIce fog.1 mph100%30.42 "Hg0 mi
7:20 am27 °FLight fog.1 mph100%30.42 "Hg1 mi
7:50 am28 °FLight fog.2 mph100%30.42 "Hg1 mi
8:20 am28 °FIce fog.2 mph100%30.42 "Hg1 mi
8:50 am30 °FLight fog.1 mph100%30.45 "Hg1 mi
9:20 am32 °FLight fog.3 mph100%30.45 "Hg1 mi
10:20 am36 °FLight fog.1 mph93%30.48 "Hg1 mi
10:50 am37 °FFog.1 mph93%30.48 "Hg1 mi
11:20 am39 °FLight fog.3 mph87%30.48 "Hg1 mi
11:50 am41 °FFog.2 mph81%30.48 "Hg1 mi
12:20 pm45 °FFog.2 mph76%30.45 "Hg1 mi
12:50 pm45 °FFog.2 mph71%30.45 "Hg2 mi
1:20 pm46 °FFog.3 mph71%30.45 "Hg2 mi
1:50 pm46 °FClear.3 mph71%30.42 "Hg4 mi
2:20 pm48 °FClear.5 mph66%30.42 "Hg4 mi
2:50 pm50 °FPassing clouds.5 mph62%30.42 "HgN/A
3:20 pm50 °FSunny.6 mph58%30.42 "Hg10 mi
3:50 pm48 °FSunny.6 mph62%30.42 "Hg10 mi
4:20 pm48 °FPassing clouds.3 mph62%30.42 "HgN/A
4:50 pm46 °FPassing clouds.3 mph62%30.42 "HgN/A
5:20 pm46 °FPassing clouds.3 mph62%30.45 "HgN/A
5:50 pm46 °FPassing clouds.3 mph62%30.45 "HgN/A
6:20 pm45 °FPassing clouds.3 mph66%30.45 "HgN/A
6:50 pm39 °FClear.1 mph81%30.45 "Hg10 mi
7:20 pm37 °FClear.1 mph81%30.48 "Hg10 mi
7:50 pm36 °FClear.2 mph87%30.48 "Hg10 mi
8:20 pm36 °FClear.1 mph87%30.48 "Hg10 mi
8:50 pm36 °FClear.2 mph87%30.51 "Hg10 mi
9:20 pm34 °FClear.2 mph87%30.51 "Hg10 mi
10:20 pm34 °FClear.3 mph87%30.51 "Hg10 mi
10:50 pm34 °FClear.3 mph87%30.51 "Hg10 mi
11:20 pm32 °FClear.3 mph87%30.51 "Hg10 mi
11:50 pm34 °FClear.1 mph87%30.51 "Hg10 mi
Weather by CustomWeather, © 2020

See weather overview